Regional Weather Roundup
Issued by NWS

Home | Current Version | Previous Version | Graphics & Text | Print | Product List | Glossary On
Versions: 1 2 3 4 5 6 7 8 9 10 11 12 13 14 15 16 17 18 19 20 21 22 23 24 25 26 27 28 29 30 31 32 33 34 35 36 37 38 39 40 41 42 43 44 45 46 47 48 49 50
000
ASUS43 KOAX 310110
RWRNE

WEATHER ROUNDUP FOR NEBRASKA
NATIONAL WEATHER SERVICE OMAHA NE
700 PM CST FRI JAN 30 2015

NOTES: SATELLITE DATA IS BEING USED TO AUGMENT CLOUD COVER ABOVE
       12000 FEET.
       "FAIR" INDICATES FEW OR NO CLOUDS BELOW 12,000 FEET WITH NO
       SIGNIFICANT WEATHER AND/OR OBSTRUCTIONS TO VISIBILITY.

  * THESE STATIONS DO NOT REPORT WEATHER SUCH AS RAIN...SNOW OR FOG.

NEZ001>004-019>022-054>056-310200-
NEBRASKA PANHANDLE

CITY           SKY/WX    TMP DP  RH WIND       PRES   REMARKS
SCOTTSBLUFF    CLOUDY    36  29  75 NE3       30.12R
ALLIANCE       CLOUDY    35  25  66 CALM      30.11R
CHADRON        CLOUDY    34  24  67 E3        30.14R
KIMBALL        CLOUDY    36  28  72 N8        30.08S WCI  29
SIDNEY         CLOUDY    37  27  67 N8        30.09S WCI  31
$$

NEZ057>060-069>072-079>082-310200-
SOUTHWEST NEBRASKA

CITY           SKY/WX    TMP DP  RH WIND       PRES   REMARKS
NORTH PLATTE   CLOUDY    42  31  64 S14       30.15R
IMPERIAL       CLOUDY    41  29  62 S13       30.13R
LEXINGTON      CLOUDY    44  28  53 S15G21    30.18F
MCCOOK         CLOUDY    40  33  76 S10       30.19R WCI  33
OGALLALA       CLOUDY    43  32  65 S12       30.11R
$$

NEZ005>010-023>029-035>040-094-310200-
NORTH CENTRAL NEBRASKA

CITY           SKY/WX    TMP DP  RH WIND       PRES   REMARKS
VALENTINE      MOCLDY    37  26  64 SW7       30.13R WCI  32
AINSWORTH      MOCLDY    36  27  68 S7        30.14R WCI  31
BROKEN BOW     CLOUDY    39  26  59 S7        30.17F WCI  34
O`NEILL        MOCLDY    38  28  64 S10       30.17S WCI  32
ORD            CLOUDY    39  25  57 S7        30.19S WCI  34
THEDFORD       CLOUDY    41  29  63 S9        30.15R
$$

NEZ041-046>049-061>064-073>077-083>087-310200-
SOUTH CENTRAL NEBRASKA

CITY           SKY/WX    TMP DP  RH WIND       PRES   REMARKS
GRAND ISLAND   CLOUDY    41  26  55 S16       30.24F
AURORA         CLOUDY    40  26  56 S12       30.25S WCI  33
HASTINGS       CLOUDY    41  25  53 S8        30.24F
HEBRON         CLOUDY    40  25  54 S6        30.30S
HOLDREGE       CLOUDY    42  26  54 S13G20    30.22S
KEARNEY *      CLOUDY    41  25  52 S16       30.22F
YORK           CLOUDY    37  27  65 S9        30.26S WCI  31
$$

NEZ011>018-030>034-042>045-310200-
NORTHEAST NEBRASKA

CITY           SKY/WX    TMP DP  RH WIND       PRES   REMARKS
NORFOLK        PTCLDY    39  27  62 S12       30.21S WCI  32
ALBION         MOCLDY    38  25  59 S7        30.21S WCI  33
BLAIR          PTCLDY    34  25  69 S10       30.27F WCI  26
COLUMBUS *     CLOUDY    37  25  60 S12       30.26S WCI  30
FREMONT        CLOUDY    37  26  65 S8        30.28S WCI  31
TEKAMAH        PTCLDY    32  24  72 SE13      30.28F WCI  22
WAYNE          PTCLDY    34  28  76 S14       30.22S WCI  25
$$

NEZ050>053-065>068-078-088>093-310200-
SOUTHEAST NEBRASKA

CITY           SKY/WX    TMP DP  RH WIND       PRES   REMARKS
LINCOLN        MOCLDY    34  25  69 S10       30.30F WCI  26
OMAHA EPPLEY   MOCLDY    33  24  69 S10       30.31F WCI  25
BEATRICE       CLOUDY    36  26  65 S10       30.30F WCI  28
FALLS CITY     CLOUDY    32  21  64 SE5       30.35S WCI  27
NEBRASKA CITY  MOCLDY    31  20  64 S9        30.32F WCI  23
PLATTSMOUTH    MOCLDY    31  23  71 SE10      30.31F WCI  23
$$

NEZ044-045-051>053-067-310200-
OMAHA AREA

CITY           SKY/WX    TMP DP  RH WIND       PRES   REMARKS
OMAHA EPPLEY   MOCLDY    33  24  69 S10       30.31F WCI  25
BLAIR          PTCLDY    34  25  69 S10       30.27F WCI  26
FREMONT        CLOUDY    37  26  65 S8        30.28S WCI  31
MILLARD        MOCLDY    34  25  69 SE7       30.30F WCI  28
OFFUTT AFB     PTCLDY    31  24  74 SE6       30.31F WCI  25
PLATTSMOUTH    MOCLDY    31  23  71 SE10      30.31F WCI  23
WAHOO          CLOUDY    35  24  65 S8        30.28S WCI  28
$$


USA.gov is the U.S. government's official web portal to all federal, state and local government web resources and services.